Regional Weather Roundup
Issued by NWS

Home | Current Version | Previous Version | Graphics & Text | Print | Product List | Glossary On
Versions: 1 2 3 4 5 6 7 8 9 10 11 12 13 14 15 16 17 18 19 20 21 22 23 24 25 26 27 28 29 30 31 32 33 34 35 36 37 38 39 40 41 42 43 44 45 46 47 48 49 50
000
ASUS43 KLOT 011810
RWRIL

ILLINOIS REGIONAL WEATHER ROUNDUP
NATIONAL WEATHER SERVICE CHICAGO/ROMEOVILLE IL
100 PM CDT WED OCT 01 2014

NOTE: "FAIR" INDICATES FEW OR NO CLOUDS BELOW 12,000 FEET WITH NO
SIGNIFICANT WEATHER AND/OR OBSTRUCTIONS TO VISIBILITY.

* THESE STATIONS ARE NOT UNDER NWS QUALITY CONTROL. THEY ALSO MAY NOT
  REPORT WEATHER SUCH AS PRECIPITATION OR FOG.

ILZ001-002-007-009-015-016-024-011900-
NORTHWEST ILLINOIS

CITY           SKY/WX    TMP DP  RH WIND       PRES   REMARKS
MOLINE         NOT AVBL
SAVANNA*       FAIR      70  53  56 SE12      29.87F
$$

ILZ003-004-008-010-011-017-018-011900-
NORTH CENTRAL ILLINOIS

CITY           SKY/WX    TMP DP  RH WIND       PRES   REMARKS
ROCKFORD       CLOUDY    69  51  52 SE16      29.94F
6HR MIN TEMP:  49; 6HR MAX TEMP:  69;

FREEPORT*      FAIR      67  53  59 SE15      29.92F
ROCHELLE*      FAIR      69  52  53 SE7       29.94F
DE KALB*       MOSUNNY   66  52  59 SE12G18   29.96F
PERU*          FAIR      73  56  55 SE8       29.93F
$$

ILZ005-006-012>014-019>023-011900-
NORTHEAST ILLINOIS

CITY           SKY/WX    TMP DP  RH WIND       PRES   REMARKS
CHICAGO-OHARE  MOSUNNY   65  49  56 S8        29.98F
6HR MIN TEMP:  50; 6HR MAX TEMP:  65;

CHICAGO-MIDWAY MOSUNNY   68  51  54 S8        29.98F
6HR MIN TEMP:  53; 6HR MAX TEMP:  68;

AURORA         MOSUNNY   69  52  54 E13       29.97F
6HR MIN TEMP:  49; 6HR MAX TEMP:  69;

LANSING*       SUNNY     66  52  60 SE8G17    29.99F
JOLIET*        MOSUNNY   69  53  55 E10       29.97F
WAUKEGAN       SUNNY     59  50  72 SE15      29.99S
6HR MIN TEMP:  55; 6HR MAX TEMP:  60;

DUPAGE AIRPORT SUNNY     68  51  54 SE9       29.97F
6HR MIN TEMP:  49; 6HR MAX TEMP:  68;

KANKAKEE*      SUNNY     71  55  56 SE6       29.98F
WHEELING       SUNNY     67  50  54 SE8       29.99F
6HR MIN TEMP:  55; 6HR MAX TEMP:  67;

MORRIS*        SUNNY     71  55  57 SE8       29.95F
ROMEOVILLE*    MOSUNNY   68  51  53 S8        29.97F
NORTHERLY ISL    N/A     62  52  69 E12         N/A
$$

LMZ740>746-011900-
SOUTHERN LAKE MICHIGAN

STATION/POSITION SKY/WX   TEMP    WIND        PRES    VSBY  WAVE
                          AIR SEA DIR/SP/G                  HT/PER
                          (F)     (DEG/KT/KT) (MB)    (MI)  (FT/S)
SOUTHERN BUOY              57 61  140/ 12/ 16 1016.7F         1/ 3
WAUKEGAN HARBOR            60     140/ 14/ 17   N/A
HARRISON CRIB              59     120/ 13/ 16   N/A
BURNHAM HARBOR             63     100/  9/ 11   N/A
CALUMET HARBOR             63      80/  8/ 10 1014.4F
MICHIGAN CITY              63     130/  6/ 10   N/A
MICHIGAN CITY 6N           63 65  150/  6/  8   N/A           1/ 2
ST. JOSEPH                 61 63  110/  6/ 12   N/A           1/ 2
$$

ILZ025>027-034>036-040-047-049-050-058-095>099-011900-
WEST-CENTRAL ILLINOIS

CITY           SKY/WX    TMP DP  RH WIND       PRES   REMARKS
QUINCY         LGT RAIN  63  61  93 E9        29.86F FOG
GALESBURG*     FAIR      69  57  64 SE7       29.87F
MACOMB*        FAIR      69  57  65 S8        29.89F
JACKSONVILLE*  FAIR      83  61  47 S7        29.88F HX  84
PITTSFIELD*    LGT RAIN  72  63  74 NW3       29.89F
$$

ILZ028>032-037-038-041>044-048-051>054-059>061-011900-
CENTRAL ILLINOIS

CITY           SKY/WX    TMP DP  RH WIND       PRES   REMARKS
PONTIAC        FAIR      79  57  47 E7        29.94F HX  80
BLOOMINGTON    SUNNY     78  61  55 S12         N/A
DECATUR        FAIR      79  58  48 S9        29.94F HX  80
PEORIA         FAIR      77  59  53 SE8       29.91F
6HR MIN TEMP:  54; 6HR MAX TEMP:  77;

LACON*         FAIR      76  58  54 S6        29.90F
LINCOLN*       FAIR      81  57  43 S5        29.89F HX  81
SPRINGFIELD    FAIR      81  60  48 SE7       29.90F HX  82
6HR MIN TEMP:  53; 6HR MAX TEMP:  81;

TAYLORVILLE    FAIR      81  59  47 S12       29.91F HX  81
$$

ILZ033-039-045-046-055>057-062-063-011900-
EAST-CENTRAL ILLINOIS

CITY           SKY/WX    TMP DP  RH WIND       PRES   REMARKS
DANVILLE*      SUNNY     74  57  55 S9        29.95F
RANTOUL*       SUNNY     79  54  42 SE7G16    29.96F
MATTOON        FAIR      79  59  50 VRB6      29.94F HX  80
PARIS*         MOSUNNY   79  58  49 SE6       29.97F HX  80
$$

ILZ079-100>102-011900-
SOUTHWEST ILLINOIS

CITY           SKY/WX    TMP DP  RH WIND       PRES   REMARKS
ALTON          MOSUNNY   82  55  39 S14       29.89F HX  82
BELLEVILLE     FAIR      85  63  48 E9        29.88F HX  86
CAHOKIA*       PTSUNNY   85  61  44 S7        29.88F HX  85
SPARTA*        FAIR      84  62  47 S7        29.91F HX  85
$$

ILZ064>066-069>071-074>076-080>082-084>086-088>090-092>094-011900-
SOUTH-CENTRAL ILLINOIS

CITY           SKY/WX    TMP DP  RH WIND       PRES   REMARKS
CARBONDALE     FAIR      84  62  47 S13       29.92F HX  85
6HR MIN TEMP:  54; 6HR MAX TEMP:  84;

CAIRO*         PTSUNNY   86  62  44 SW9       29.92F HX  86
EFFINGHAM*     FAIR      80  56  44 S6        29.94F HX  80
MARION         MOSUNNY   86  61  42 S9        29.93F HX  86
CENTRALIA*     FAIR      82  59  45 S8        29.92F HX  82
SALEM*         FAIR      83  63  51 SE8       29.93F HX  84
METROPOLIS*    PTSUNNY   86  61  42 S7        29.92F HX  86
$$

ILZ067-068-072-073-078-083-087-091-011900-
SOUTHEAST ILLINOIS

CITY           SKY/WX    TMP DP  RH WIND       PRES   REMARKS
LAWRENCEVILLE  MOSUNNY   82  60  47 S7        29.95F HX  82
FLORA*         MOSUNNY   82  57  42 S7        29.94F HX  82
FAIRFIELD*     FAIR      84  61  45 SW6       29.93F HX  84
HARRISBURG*    FAIR      85  59  42 SW12G17   29.94F HX  84
ROBINSON*      MOSUNNY   81  63  53 SE5       29.96F HX  82
CARMI*         FAIR      87  60  39 S10       29.93F HX  87
$$

ABBREVIATIONS USED IN REMARKS
   TC - TEMPERATURE IN CELSIUS
  WCI - WIND CHILL INDEX
   HX - HEAT INDEX
  VSB - VISIBILITY
$$




USA.gov is the U.S. government's official web portal to all federal, state and local government web resources and services.